Hourly Data Report for October 05, 2017

All times are specified in Local Standard Time (LST). Add 1 hour to adjust for Daylight Saving Time where and when it is observed.

GRISE FIORD CLIMATE
NUNAVUT

76°25'22.040" N
82°54'08.020" W
44.50 m
2402351
71971
NGC

Download Data

Hourly Data (October 2017)
Hourly Data Report for October 5, 2017
Temp Definition
°C
Dew Point Temp Definition
°C
Rel Hum Definition
%
Wind Dir Definition
10's deg

Wind Spd Definition
km/h
Visibility Definition
km
Stn Press Definition
kPa
Hmdx Definition


Wind Chill Definition


Weather Definition


TIME
00:00 0.3 -7.0 58 22 9   99.56     LegendNANA
01:00 -1.0 -6.8 65   0   99.64     LegendNANA
02:00 -1.3 -7.0 65 10 7   99.70   -4 LegendNANA
03:00 -1.1 -7.1 63 4 6   99.78   -3 LegendNANA
04:00 -1.5 -6.2 70 31 3   99.82   -3 LegendNANA
05:00 -2.3 -4.7 83 26 2   99.90   -3 LegendNANA
06:00 -2.3 -5.4 79 18 6   99.94   -5 LegendNANA
07:00 -2.1 -5.4 79 22 4   99.96   -4 LegendNANA
08:00 -1.4 -5.2 75 17 4   100.05   -3 LegendNANA
09:00 -2.3 -3.7 90 29 1   100.17   -3 LegendNANA
10:00 -2.5 -3.6 92 13 4   100.30   -4 LegendNANA
11:00 -2.7 -3.5 95 35 3   100.37   -4 LegendNANA
12:00 -2.8 -3.6 95 21 5   100.45   -5 LegendNANA
13:00 -0.8 -5.3 71 7 17   100.48   -6 LegendNANA
14:00 -0.9 -6.5 66 6 10   100.59   -4 LegendNANA
15:00 -0.7 -6.3 66 7 22   100.73   -6 LegendNANA
16:00 -0.9 -6.4 67 8 20   100.75   -6 LegendNANA
17:00 -0.4 -7.4 59 10 35   100.78   -7 LegendNANA
18:00 -0.8 -7.3 61 9 41   100.83   -9 LegendNANA
19:00 -0.9 -5.8 69 13 18   100.93   -6 LegendNANA
20:00 -1.5 -6.4 69 4 19   100.95   -7 LegendNANA
21:00 -1.6 -6.7 68 8 20   100.94   -7 LegendNANA
22:00 -1.6 -7.9 62 9 24   100.90   -8 LegendNANA
23:00 -1.9 -8.9 59 8 14   100.89   -7 LegendNANA

Notes on Data Quality.

Legend

  • E = Estimated
  • M = Missing
  • NA = Not Available
  • ‡ = Partner data that is not subject to review by the National Climate Archives
Date modified: